星链-32194 (STARLINK-32194)

导读

STARLINK-32194是美国太空探索技术公司星链互联网卫星星座中的一颗卫星,于2024年7月28日发射。星链计划旨在构建全球卫星互联网星座,为全球偏远地区、海洋等地面网络难以覆盖区域提供高速互联网接入服务。该卫星入轨后,将助力提升星链系统整体覆盖能力与服务容量。

Basic Information
目录编号:
60315
目录名称:
STARLINK-32194
国际标识:
2024-133Q
轨道中心:
EARTH
卫星名称:
星链-32194 (STARLINK-32194)
卫星全名:
星链-32194 (STARLINK-32194)
卫星状态:
在轨 (已飞行768 天)
发射日期:
2024-07-28 UTC
国别 :
美国 (US)
星等 :
--
Orbit Information
数据来源 国际轨道数据 AOE轨道数据
星历时间 2026-09-03T13:33:40+0800
22小时前
查看轨道信息
2026-09-01T02:00:00+0800
3天前
查看轨道信息
半长轴 6840.881km 6840.869km
偏心率 0.0001371 0.0002229
轨道倾角 53.159° 53.153°
近地点辐角 85.360° 82.464°
升交点赤经 190.214° 201.819°
平近点角 274.756° 241.520°
近地点 461.806km 461.207km
远地点 463.682km 464.257km
周期 93.849分钟 93.848分钟
每日圈数 15.343866 15.343906
Detailed Information
卫星平台:
Starlink v2.0 mini
运营商:
太空探索技术公司
运营商所在国:
美国
制造商(研发单位):
太空探索技术公司
制造商所在国:
美国
使用方式:
暂无
Satellite Introduction
星链(Starlink)计划是由太空探索技术公司(SpaceX)提出的一个巨型低轨卫星互联网星座项目,计划在2019年至2024年间在太空搭建由约1.2万颗卫星组成的“星链”网络,其中1584颗将部署在地球上空550千米处的近地轨道,并从2020年开始工作。该卫星仍在工作。
2D Orbit Map
3D Orbit Map
Orbit Altitude Analysis Chart
Orbit Inclination Analysis Chart
Orbit Comprehensive Analysis Chart
View Comprehensive Chart
Conjunction Data List
Event ID Objects TCA Miss Dist (km) Collision Risk Probability Collision Risk Index (CRI) Action
CDM_260827-230006-031506-622621
2026-08-27T
23:00:00+0000
0.730 km
远距离
4.463164E-5 中风险 0.68
CDM_260905-075206-031506-622621
2026-09-05T
07:52:48+0000
0.777 km
远距离
3.669726E-5 中风险 0.66
CDM_260905-061906-031506-622621
2026-09-05T
06:19:00+0000
0.987 km
远距离
1.649476E-5 中风险 0.59
CDM_260905-122305-340006-031521
2026-09-05T
12:23:13+0000
2.563 km
极远距离
1.46703E-6 低风险 0.38
CDM_260905-092606-031506-622621
2026-09-05T
09:26:36+0000
2.569 km
极远距离
1.068488E-6 低风险 0.36
CDM_260905-044506-031506-622621
2026-09-05T
04:45:13+0000
2.720 km
极远距离
9.813361E-7 极低风险 0.35